Regional Weather Roundup
Issued by NWS

Home | Current Version | Previous Version | Text Only | Print | Product List | Glossary Off
Versions: 1 2 3 4 5 6 7 8 9 10 11 12 13 14 15 16 17 18 19 20 21 22 23 24 25 26 27 28 29 30 31 32 33 34 35 36 37 38 39 40 41 42 43 44 45 46 47 48 49 50

000
ASUS45 KBOI 201010
RWRID

IDAHO REGIONAL WEATHER ROUNDUP
NATIONAL WEATHER SERVICE BOISE ID
300 AM MST TUE FEB 20 2018

NOTE: "FAIR" INDICATES FEW OR NO CLOUDS BELOW 12000 FEET
WITH NO SIGNIFICANT WEATHER AND/OR OBSTRUCTIONS TO VISIBILITY

IDZ012-014-201100-
SOUTHWEST IDAHO


CITY           SKY/WX    TMP DP  RH WIND       PRES   REMARKS
BOISE          CLEAR     13   2  61 NW12      30.06  WCI  -1
CALDWELL       CLEAR     15   3  59 W13       30.12R WCI   1
MOUNTAIN HOME  CLEAR     12   3  66 NW15      30.05R WCI  -4
$$

IDZ016-017-201100-
SOUTHCENTRAL IDAHO


CITY           SKY/WX    TMP DP  RH WIND       PRES   REMARKS
BURLEY         CLOUDY    11   2  67 SW16      29.93R WCI  -6
JEROME         CLEAR     11   2  67 SW20      29.94R WCI  -7
TWIN FALLS     PTCLDY     9   1  70 SW12      29.95R WCI  -6
$$

IDZ019>023-201100-
SOUTHEAST IDAHO


CITY           SKY/WX    TMP DP  RH WIND       PRES   REMARKS
IDAHO FALLS    MOCLDY    10  -3  55 NW3       29.88R
POCATELLO      LGT SNOW  13   9  84 SW20      29.91R FOG     WCI  -5
REXBURG        CLOUDY     7  -4  60 NE7       29.85R WCI  -5
$$

IDZ006-010-011-018-031-032-201100-
CENTRAL IDAHO MOUNTAINS


CITY           SKY/WX    TMP DP  RH WIND       PRES   REMARKS
MCCALL         PTCLDY    -6 -10  83 NE5       29.88R WCI -17
HAILEY         CLOUDY    14   7  73 SE5       29.81R WCI   6
STANLEY          N/A    -15 -21  74 SE5       29.78R WCI -27
SALMON         CLOUDY    10   2  69 NW5       29.96R WCI   2
CHALLIS        CLOUDY    12  -1  56 NW6       29.84R WCI   3
$$

IDZ002-004-006-007-026-201100-
NORTHERN IDAHO


CITY           SKY/WX    TMP DP  RH WIND       PRES   REMARKS
LEWISTON       PTCLDY    14   6  70 CALM      30.22R
LOWELL           N/A     19  13  77 CALM      30.23R
COEUR D`ALENE  PTCLDY    -8 -12  83 NE5       30.14S FOG     WCI -19
MULLAN PASS    CLOUDY    -3  -9  75 CALM      29.79S
$$



USA.gov is the U.S. government's official web portal to all federal, state and local government web resources and services.